Location: Ch�teau-Arnoux
(44.0814°N, 6.0027°E)
Time: 01:21:40
(UTC+00:00)

COSMOS 2487 - Pass Details

Date: 15 November 2019
Orbit: 443 x 448 km, 74.7° (Epoch: 10 December)

Event Time Altitude Azimuth Distance (km) Brightness Sun altitude
Rises 05:54:46 0° 210° (SSW) 2,426 6.0 -6.8°
Reaches altitude 10° 05:56:53 10° 216° (SW) 1,560 5.0 -6.4°
Maximum altitude 06:00:13 49° 292° (WNW) 582 2.6 -5.9°
Drops below altitude 10° 06:03:35 10° 9° (N) 1,574 5.0 -5.3°
Sets 06:05:43 0° 15° (NNE) 2,450 6.1 -4.9°
